Regional Weather Roundup
Issued by NWS

Home | Current Version | Previous Version | Text Only | Print | Product List | Glossary On
Versions: 1 2 3 4 5 6 7 8 9 10 11 12 13 14 15 16 17 18 19 20 21 22 23 24 25 26 27 28 29 30 31 32 33 34 35 36 37 38 39 40 41 42 43 44 45 46 47 48 49 50
892
ASUS44 KEWX 292111
RWRTX
SOUTH TEXAS REGIONAL WEATHER ROUNDUP
NATIONAL WEATHER SERVICE AUSTIN/SAN ANTONIO TX
400 PM CDT FRI APR 29 2016

NOTE: "FAIR" INDICATED FEW OR NO CLOUDS BELOW 12,000 FEET WITH NO
SIGNIFICANT WEATHER AND/OR OBSTRUCTIONS TO VISIBILITY.

* - THESE STATIONS ARE NOT NWS OR FAA STATIONS...AND ARE NOT SUBJECT
    TO NWS AND FAA QUALITY CONTROL.

TXZ171-172-183>190-292200-
TEXAS HILL COUNTRY AND EDWARDS PLATEAU

CITY           SKY/WX    TMP DP  RH WIND       PRES   REMARKS
JUNCTION       SUNNY     84  66  54 VRB6      29.61F
*LLANO         MOSUNNY   88  72  58 S15G24    29.61F HX  94
BURNET         PTSUNNY   83  72  69 S14G23    29.62F
*HORSESHOE BAY MOSUNNY   87  73  62 S10G23    29.60F HX  94
*KERRVILLE     CLOUDY    84  73  70 S9        29.63F HX  91
*FREDERICKSBRG MOSUNNY   83  67  59 S13G21    29.62F
*ROCKSPRINGS   SUNNY     82  70  65 CALM      29.69F
*BOERNE STAGE  CLOUDY    81  72  74 S7        29.63F
*CASTROVILLE   CLOUDY    85  71  62 S12       29.60F HAZE    HX  90
HONDO          CLOUDY    85  72  65 S8        29.60F HX  91
*UVALDE        CLOUDY    84  70  63 CALM      29.61S
DEL RIO        MOSUNNY   88  65  46 E6        29.56F HX  90
LAUGHLIN AFB   MOSUNNY   86  67  52 E7        29.58F
CARRIZO SPRGS  CLOUDY    90  68  48 SW3       29.55F HX  93
*EAGLE PASS    PTCLDY    90  66  45 CALM      29.58S HX  92
$$

TXZ173-191>194-202-209-217>225-228-292200-
CENTRAL AND SOUTH CENTRAL TEXAS

CITY           SKY/WX    TMP DP  RH WIND       PRES   REMARKS
GEORGETOWN     NOT AVBL
AUSTIN/BERGSTM PTSUNNY   84  74  71 S20G31    29.61F HAZE    HX  91
AUSTIN/MABRY   CLOUDY    83  74  74 S8G21     29.62F
*AUSTIN/EXEC   CLOUDY    81  73  78 S9G20     29.62F HAZE
*LAGO VISTA    CLOUDY    82  72  71 S10G25    29.63F
SAN MARCOS     CLOUDY    82  73  74 S14G21    29.63F
NEW BRAUNFELS  CLOUDY    84  74  71 S21G26    29.60F HX  91
RANDOLPH AFB   PTSUNNY   82  76  83 SE15G22   29.61F
PT SAN ANTONIO MOSUNNY   84  74  73 SE15      29.58F HX  91
SAN ANTONIO    CLOUDY    82  74  76 SE17G25   29.61F
STINSON FIELD  CLOUDY    87  74  64 SE17G24   29.58F HX  95
*PLEASANTON    CLOUDY    87  73  63 SE13G21   29.59F HX  95
*LA GRANGE       N/A     86  75  70 S13G20    29.61F HX  95
*GIDDINGS      PTSUNNY   82  72  72 S12       29.66F
*GONZALES      MOSUNNY   86  78  77 S9        29.61F HX  98
$$

TXZ163>164-176>182-195>201-210>213-226-227-235-292200-
SOUTHEAST TEXAS

CITY           SKY/WX    TMP DP  RH WIND       PRES   REMARKS
COLLEGE STN    CLOUDY    84  72  67 SE17      29.62F
*BRYAN         CLOUDY    83  71  66 S20G29    29.63F
*CALDWELL      PTSUNNY   82  72  69 S15       29.64F
*CROCKETT      SUNNY     79  72  78 SE9       29.67F
*BRENHAM       PTSUNNY   86  73  65 S17G25    29.64F HX  93
HUNTSVILLE     MOSUNNY   88  69  53 SE10G25   29.64F HX  92
CONROE         PTSUNNY   85  71  63 S18G30    29.67F HX  90
HOUSTON BUSH   CLOUDY    81  73  76 S18G28    29.68F
HOUSTON HOBBY  CLOUDY    82  74  76 S15G22    29.68F
*HOUSTON SW AP CLOUDY    82  74  77 S16       29.69F
PEARLAND       CLOUDY    82  74  76 S20G28    29.70F
HOUSTON HOOKS  PTSUNNY   84  73  69 S14G23    29.66F HX  90
ELLINGTON FLD  CLOUDY    82  73  74 S18G28    29.71F
SUGAR LAND     CLOUDY    81  73  76 S17G28    29.67F
*HOUSTON EXEC  PTSUNNY   84  75  74 S16G29    29.67F HX  92
*CLEVELAND MUN CLOUDY    81  75  81 S15G24    29.69F HAZE
*WHARTON       CLOUDY    81  75  80 S17       29.67F
*COLUMBUS      CLOUDY    80  74  82 S13G20    29.65F
*EAGLE LAKE    CLOUDY    81  74  80 S17G23    29.66F
$$

TXZ214>216-236>238-292200-
THE UPPER TEXAS COAST

CITY           SKY/WX    TMP DP  RH WIND       PRES   REMARKS
*ORANGE        CLOUDY    79  71  76 S14       29.77F
PORT ARTHUR    CLOUDY    80  74  81 S18G28    29.74F
GALVESTON      CLOUDY    80  76  87 S22G31    29.71F
ANGLETON       CLOUDY    82  74  76 S21G26    29.69F
*BAY CITY      CLOUDY    82  76  82 S17G25    29.68F HAZE
PALACIOS       CLOUDY    81  75  82 S14       29.67F
$$

TXZ229>234-239>247-292200-
TEXAS COASTAL BEND AND RIO GRANDE PLAINS

CITY           SKY/WX    TMP DP  RH WIND       PRES   REMARKS
VICTORIA       CLOUDY    82  74  76 S21G26    29.65F
*BEEVILLE      CLOUDY    87  77  72 S14G20    29.61F HX  98
ROCKPORT       CLOUDY    81  75  82 S10G18    29.63F HAZE
*PORT ARANSAS  CLOUDY    80  77  91 S15       29.63F FOG
*PORT LAVACA   CLOUDY    80  76  87 S12G17    29.66F FOG
*INGLESIDE     CLOUDY    77  70  80 S18G24    29.63F
CORPUS CHRISTI CLOUDY    85  75  72 S23G31    29.61F HX  93
CORPUS NAS     CLOUDY    82  78  88 S21G29    29.62F FOG     HX  91
*ROBSTOWN      MOSUNNY   87  77  72 SE20      29.61F HX  99
ALICE          CLOUDY    90  72  55 S18G25    29.58F HX  97
KINGSVILLE NAS CLOUDY    90  78  68 SE18      29.59F HX 104
COTULLA        CLOUDY    93  68  43 VRB3      29.55F HX  97
*FAITH RANCH     N/A    N/A N/A N/A MISG        N/A
LAREDO         CLOUDY    93  70  46 S6        29.56F HX  99
$$

TXZ248>255-292200-
DEEP SOUTH TEXAS

CITY           SKY/WX    TMP DP  RH WIND       PRES   REMARKS
BROWNSVILLE    CLOUDY    83  77  82 SE17G28   29.61F HX  92
PORT ISABEL    CLOUDY    83  77  82 S24G31    29.60F HAZE    HX  92
*SOUTH PADRE     N/A     81  75  83 S16G24    29.61F
HARLINGEN      CLOUDY    86  75  69 S20       29.60F HX  95
*HEBBRONVILLE  CLOUDY    91  71  51 S15       29.60F HX  96
MCALLEN        CLOUDY    89  75  63 SE17      29.59F HX  99
*WESLACO       CLOUDY    85  74  69 S14G21    29.60F HX  93
FALFURRIAS     CLOUDY    91  72  52 SE17G23   29.58F HX  98
EDINBURG       CLOUDY    90  73  56 S15       29.60F HX  98
*ZAPATA        CLOUDY    90  71  52 S10       29.57F HX  96
$$

TXZ213>215-236>238-242>244-246-247-251-254-255-292200-
CMAN STATIONS

STATION/POSITION TIME  TEMP    WIND        PRES    WAVE
                       AIR SEA DIR/SP/G            HT/PER
                 (UTC) (F)     (DEG/KT/KT) (MB)    (FT/S)
SABINE PASS      2000   78 78  170/ 18/ 24 1008.7
SEA RIM ST PARK  2100   78     160/ 15/ 19 1007.5
NORTH JETTY/GLS  2000   79 78                N/A
EAGLE POINT      2000   78 73  180/ 20/ 25 1006.3
MORGANS POINT    2000   79 73  150/ 12/ 17 1006.7
MISSION/ARANSAS  2000   80                 1005.0
PORT O`CONNOR    2000          160/ 12/ 14   N/A
PORT ARANSAS     2100   79 78  160/ 15/ 16 1003.9
MALAQUITE BEACH  2000   79 80  160/ 14/ 16 1004.1
BAFFIN BAY       2000   80 83  160/ 19/ 24 1003.6
PORT ISABEL      2000   80 78              1003.3
$$

GMZ080-GMZ150>470-292200-
OFFSHORE BUOY REPORTS

STATION/POSITION TIME  TEMP    WIND        PRES    WAVE
                       AIR SEA DIR/SP/G            HT/PER
                 (UTC) (F)     (DEG/KT/KT) (MB)    (FT/S)
20 E GALVESTON   2050   77 77  170/ 21/ 25 1005.1    6/ 7
90 E PT ARANSAS  2050   78 76  140/ 17/ 21 1004.8    7/ 8
35 NE PT MANSFLD 2050   79 77  160/ 19/ 23 1002.2    8/ 9
200 E PT ISABEL  2050                        N/A     9/ 8
$$




USA.gov is the U.S. government's official web portal to all federal, state and local government web resources and services.